Flag for India Weather past 2 weeks in Jaunpur, Uttar Pradesh, India

Now
90 °F

Haze.


Feels Like: 92 °F
Forecast: 85 / 110 °F
Wind: 2 mph from Northwest

Location: Varanasi / Babatpur

Current Time: Jun 2, 2015 at 11:07:48 AM

Latest Report: Jun 2, 2015 at 9:00 AM


Visibility: 2 mi

Pressure: 29.65 "Hg

Humidity: 46%

Dew point: 66 °F

Location of JaunpurLocation

Historic Weather in Jaunpur — Graph

°F

Jaunpur temperature yesterday

Maximum temperature yesterday: 108 °F (at 2:00 PM)
Minimum temperature yesterday: 86 °F (at 6:00 AM)
Average temperature yesterday: 99 °F

Past Weeks' High & Low Weather Summary

 TemperatureHumidityPressure
High113 °F (May 23, 1:00 PM)79% (May 26, 5:00 AM)29.65 "Hg (May 26, 5:00 AM)
Low81 °F (May 22, 4:00 AM)9% (May 23, 2:00 PM)29.36 "Hg (May 18, 6:00 PM)
Average97 °F39%29.54 "Hg
* Reported May 18 9:00 AM — Jun 2 9:00 AM, Jaunpur, Weather by CustomWeather, © 2015

Note: Actual official high and low records may vary slightly from our data, if they occured in-between our weather recording intervals... More about our weather records

Advertising

Jaunpur weather history for previous 24 hours

 ConditionsComfort  
Time TempWeatherWind HumidityBarometerVisibility
9:00 AM
Tue, Jun 2
90 °FHaze.2 mph46%29.65 "Hg2 mi
8:00 AM90 °FBroken clouds.N/A43%29.65 "Hg2 mi
7:00 AM86 °FPartly sunny.3 mph49%29.65 "Hg3 mi
6:00 AM84 °FPartly sunny.2 mph51%29.62 "Hg3 mi
5:00 AM84 °FPassing clouds.3 mph55%29.62 "Hg2 mi
4:00 AM86 °FPassing clouds.2 mph52%29.59 "Hg2 mi
12:00 AM91 °FPassing clouds.3 mph41%29.62 "Hg1 mi
11:00 PM
Mon, Jun 1
93 °FPassing clouds.3 mph36%29.62 "Hg1 mi
10:00 PM95 °FPassing clouds.8 mph34%29.62 "Hg1 mi
9:00 PM97 °FPassing clouds.3 mph30%29.59 "Hg1 mi
8:00 PM100 °FPassing clouds.9 mph25%29.56 "Hg2 mi
7:00 PM100 °FScattered clouds.2 mph27%29.53 "Hg3 mi
5:00 PM104 °FScattered clouds.8 mph26%29.47 "Hg4 mi
4:00 PM104 °FScattered clouds.9 mph28%29.50 "Hg4 mi
3:00 PM108 °FScattered clouds.13 mph23%29.50 "Hg3 mi
2:00 PM108 °FScattered clouds.9 mph25%29.53 "Hg3 mi
12:00 PM106 °FHaze.12 mph22%29.56 "Hg3 mi
11:00 AM104 °FHaze.12 mph23%29.56 "Hg2 mi
Weather by CustomWeather, © 2015

See weather overviewHow to use our weather pages